Regional Weather Roundup
Issued by NWS New Orleans/Baton Rouge, LA

Home | Current Version | Previous Version | Graphics & Text | Print | Product List | Glossary On
Versions: 1 2 3 4 5 6 7 8 9 10 11 12 13 14 15 16 17 18 19 20 21 22 23 24 25 26 27 28 29 30 31 32 33 34 35 36 37 38 39 40 41 42 43 44 45 46 47 48 49 50
093
ASUS44 KLIX 300705
RWRLIX
NEW ORLEANS REGIONAL WEATHER ROUNDUP
NATIONAL WEATHER SERVICE NEW ORLEANS LA
200 AM CDT TUE SEP 30 2014

NOTE: "FAIR" INDICATES FEW OR NO CLOUDS BELOW 12,000 FEET WITH NO
      SIGNIFICANT WEATHER AND/OR OBSTRUCTIONS TO VISIBILITY.
      SKY/WX - SKY CONDITION AND SIGNIFICANT WEATHER.
      TMP - AIR TEMPERATURE.     DP    - DEWPOINT TEMPERATURE.
      RH  - RELATIVE HUMIDITY.   PRES  - PRESSURE.
      HI  - HEAT INDEX.          WCI   - WIND CHILL INDEX.

*  THESE STATIONS ARE NOT NWS OR FAA STATIONS AND ARE NOT UNDER
   NWS QUALITY CONTROL.

LAZ038-040-048-061>063-065>067-069-300800-
SOUTHEAST LOUISIANA

CITY           SKY/WX    TMP DP  RH WIND       PRES   REMARKS
N.O. AUDUBON   NOT AVBL
N.O. INTL ARPT CLEAR     75  72  90 CALM      29.87R
N.O. LAKEFRONT CLEAR     78  73  84 NE5       29.87S
N.O. DOWNTOWN*   N/A     77  70  78 CALM      29.87S
SLIDELL        CLEAR     70  68  93 CALM      29.87S
BATON ROUGE    CLEAR     72  70  93 CALM      29.88R
BOOTHVILLE     CLEAR     78  74  87 CALM      29.87R
BELLE CHASSE   CLEAR     72  69  90 CALM      29.86S
BOGALUSA*      PTSUNNY   72  68  89 CALM      29.89S
GALLIANO*      NOT AVBL
NEW ROADS*       N/A     71  71  99 CALM      29.87S FOG
GONZALES*        N/A     72  72 100 CALM      29.87R FOG
HAMMOND*       CLEAR     72  68  88 CALM      29.89S
HOUMA*         CLEAR    N/A N/A N/A CALM      29.87S HAZE
PORT FOURCHON* SUNNY     79  73  83 E3        29.90S

$$

MSZ070-080>082-300800-
SOUTHERN MISSISSIPPI

CITY           SKY/WX    TMP DP  RH WIND       PRES   REMARKS
MCCOMB         CLEAR     73  67  81 N3        29.89S
GULFPORT       CLEAR     73  70  90 N3        29.86S
BILOXI         CLEAR     73  73  98 NE7       29.86S
PASCAGOULA     CLEAR     70  69  97 NE3       29.87S

$$

COASTAL OBSERVATIONS
LAKE AND NEARSHORE STATIONS

STATION/POSITION TIME  TEMP    WIND        PRES    WAVE
                       AIR SEA DIR/SP/G            HT/PER
                 (UTC) (F)     (DEG/KT/KT) (MB)    (FT/S)
PASCAGOULA       0700   75      40/  7/  9 1010.7
WAVELAND YACHT   0700   76      70/  5/  6 1010.6
GRAND ISLE       0700   78 80   70/  2/  4 1011.9
SOUTHWEST PASS   0700   80 86   20/  3/  4 1011.5
NEW CANAL        0700   79 77   50/  2/  3 1011.6
SHELL BEACH      0700   78 75   50/  5/  7 1011.0

OFFSHORE STATIONS

STATION/POSITION TIME  TEMP    WIND        PRES    WAVE
                       AIR SEA DIR/SP/G            HT/PER
                 (UTC) (F)     (DEG/KT/KT) (MB)    (FT/S)
64 S DAUPHIN ISL 0630   78 82   70/ 14/ 16 1010.9    2/ 5

$$




USA.gov is the U.S. government's official web portal to all federal, state and local government web resources and services.